| time (UTC) | temp F | wind direction | speed knots | gust knots | rain 1hr in | rain 24hr in | rain mn in | humidity % | barometer mb |
| 20260504151005 | 76 | 236 | 7.0 | 0.0 | 0.00 | 0.00 | 0.00 | 32 | 2147.4 |
| 20260504150504 | 77 | 236 | 7.0 | 0.0 | 0.00 | 0.00 | 0.00 | 32 | 2147.4 |
| 20260504140932 | 76 | 236 | 7.0 | 0.0 | 0.00 | 0.00 | 0.00 | 33 | 2147.4 |
| 20260504140431 | 76 | 236 | 7.8 | 0.0 | 0.00 | 0.00 | 0.00 | 32 | 2147.4 |
| 20260504130400 | 79 | 225 | 9.6 | 0.0 | 0.00 | 0.00 | 0.00 | 29 | 2147.4 |
| 20260504110245 | 81 | 225 | 10.4 | 0.0 | 0.00 | 0.00 | 0.00 | 25 | 2147.4 |
| 20260504100210 | 80 | 220 | 12.2 | 0.0 | 0.00 | 0.00 | 0.00 | 26 | 2147.4 |
| 20260504090134 | 79 | 214 | 10.4 | 0.0 | 0.00 | 0.00 | 0.00 | 29 | 2147.4 |
| 20260504081604 | 76 | 211 | 9.6 | 0.0 | 0.00 | 0.00 | 0.00 | 30 | 2147.4 |
| 20260504081103 | 77 | 211 | 9.6 | 0.0 | 0.00 | 0.00 | 0.00 | 31 | 2147.4 |
| 20260504080600 | 76 | 211 | 9.6 | 0.0 | 0.00 | 0.00 | 0.00 | 34 | 2147.4 |
| 20260504050403 | 65 | 202 | 7.0 | 0.0 | 0.00 | 0.00 | 0.00 | 42 | 2147.4 |
| 20260504045900 | 65 | 202 | 7.0 | 0.0 | 0.00 | 0.00 | 0.00 | 42 | 2147.4 |
| 20260504045357 | 64 | 202 | 7.0 | 0.0 | 0.00 | 0.00 | 0.00 | 42 | 2147.4 |
| 20260504044853 | 64 | 202 | 7.0 | 0.0 | 0.00 | 0.00 | 0.00 | 42 | 2147.4 |
| 20260504044350 | 63 | 202 | 7.0 | 0.0 | 0.00 | 0.00 | 0.00 | 44 | 2147.4 |
| 20260504043846 | 63 | 202 | 7.0 | 0.0 | 0.00 | 0.00 | 0.00 | 43 | 2147.4 |
| 20260504043343 | 61 | 202 | 7.0 | 0.0 | 0.00 | 0.00 | 0.00 | 46 | 2147.4 |
| 20260504042840 | 62 | 202 | 7.0 | 0.0 | 0.00 | 0.00 | 0.00 | 44 | 2147.4 |
| 20260504042336 | 60 | 202 | 7.0 | 0.0 | 0.00 | 0.00 | 0.00 | 46 | 2147.4 |
| 20260504041833 | 59 | 202 | 7.0 | 0.0 | 0.00 | 0.00 | 0.00 | 49 | 2147.4 |
| 20260504041329 | 58 | 202 | 7.0 | 0.0 | 0.00 | 0.00 | 0.00 | 50 | 2147.4 |
| 20260504040826 | 56 | 202 | 7.0 | 0.0 | 0.00 | 0.00 | 0.00 | 52 | 2147.4 |
| 20260504040322 | 54 | 202 | 7.0 | 0.0 | 0.00 | 0.00 | 0.00 | 55 | 2147.4 |
| 20260504035819 | 53 | 202 | 7.0 | 0.0 | 0.00 | 0.00 | 0.00 | 57 | 2147.4 |
| 20260504035315 | 52 | 202 | 7.0 | 0.0 | 0.00 | 0.00 | 0.00 | 58 | 2147.4 |
| 20260504034812 | 51 | 202 | 7.0 | 0.0 | 0.00 | 0.00 | 0.00 | 59 | 2147.4 |
| 20260504034308 | 50 | 202 | 7.0 | 0.0 | 0.00 | 0.00 | 0.00 | 62 | 2147.4 |
| 20260504033804 | 49 | 202 | 7.0 | 0.0 | 0.00 | 0.00 | 0.00 | 64 | 2147.4 |
| 20260504033302 | 48 | 197 | 6.1 | 0.0 | 0.00 | 0.00 | 0.00 | 64 | 2147.4 |
| 20260504032758 | 48 | 197 | 6.1 | 0.0 | 0.00 | 0.00 | 0.00 | 64 | 2147.4 |
| 20260504032257 | 48 | 197 | 6.1 | 0.0 | 0.00 | 0.00 | 0.00 | 64 | 2147.4 |
| 20260504031753 | 47 | 197 | 6.1 | 0.0 | 0.00 | 0.00 | 0.00 | 66 | 2147.4 |
| 20260504031250 | 46 | 197 | 6.1 | 0.0 | 0.00 | 0.00 | 0.00 | 70 | 2147.4 |
| 20260504030747 | 45 | 197 | 6.1 | 0.0 | 0.00 | 0.00 | 0.00 | 74 | 2147.4 |
| 20260504030243 | 44 | 197 | 6.1 | 0.0 | 0.00 | 0.00 | 0.00 | 75 | 2147.4 |
| 20260504025740 | 44 | 197 | 6.1 | 0.0 | 0.00 | 0.00 | 0.00 | 77 | 2147.4 |
| 20260504025236 | 44 | 197 | 6.1 | 0.0 | 0.00 | 0.00 | 0.00 | 76 | 2147.4 |
| 20260504024732 | 44 | 197 | 6.1 | 0.0 | 0.00 | 0.00 | 0.00 | 75 | 2147.4 |
| 20260504024229 | 44 | 197 | 6.1 | 0.0 | 0.00 | 0.00 | 0.00 | 75 | 2147.4 |
| 20260504023726 | 44 | 213 | 5.2 | 0.0 | 0.00 | 0.00 | 0.00 | 74 | 2147.4 |
| 20260504023225 | 44 | 213 | 5.2 | 0.0 | 0.00 | 0.00 | 0.00 | 72 | 2147.4 |
| 20260504022721 | 44 | 213 | 5.2 | 0.0 | 0.00 | 0.00 | 0.00 | 73 | 2147.4 |
| 20260504022220 | 45 | 213 | 5.2 | 0.0 | 0.00 | 0.00 | 0.00 | 74 | 2147.4 |
| 20260504021717 | 45 | 213 | 5.2 | 0.0 | 0.00 | 0.00 | 0.00 | 74 | 2147.4 |
| 20260504021213 | 45 | 213 | 5.2 | 0.0 | 0.00 | 0.00 | 0.00 | 71 | 2147.4 |
| 20260504020709 | 45 | 213 | 5.2 | 0.0 | 0.00 | 0.00 | 0.00 | 74 | 2147.4 |
| 20260504020208 | 44 | 213 | 5.2 | 0.0 | 0.00 | 0.00 | 0.00 | 72 | 2147.4 |
| 20260504015705 | 45 | 213 | 5.2 | 0.0 | 0.00 | 0.00 | 0.00 | 72 | 2147.4 |
| 20260504015201 | 45 | 213 | 5.2 | 0.0 | 0.00 | 0.00 | 0.00 | 70 | 2147.4 |
| 20260504014658 | 45 | 213 | 5.2 | 0.0 | 0.00 | 0.00 | 0.00 | 69 | 2147.4 |
| 20260504014154 | 45 | 213 | 5.2 | 0.0 | 0.00 | 0.00 | 0.00 | 69 | 2147.4 |
| 20260504013651 | 45 | 200 | 5.2 | 0.0 | 0.00 | 0.00 | 0.00 | 68 | 2147.4 |
| 20260504013147 | 46 | 200 | 5.2 | 0.0 | 0.00 | 0.00 | 0.00 | 67 | 2147.4 |
| 20260504012644 | 46 | 200 | 5.2 | 0.0 | 0.00 | 0.00 | 0.00 | 66 | 2147.4 |
| 20260504012140 | 46 | 200 | 5.2 | 0.0 | 0.00 | 0.00 | 0.00 | 67 | 2147.4 |
| 20260504011637 | 46 | 200 | 5.2 | 0.0 | 0.00 | 0.00 | 0.00 | 68 | 2147.4 |
| 20260504011133 | 45 | 200 | 5.2 | 0.0 | 0.00 | 0.00 | 0.00 | 70 | 2147.4 |
| 20260504010629 | 45 | 200 | 5.2 | 0.0 | 0.00 | 0.00 | 0.00 | 70 | 2147.4 |
| 20260504010125 | 45 | 200 | 5.2 | 0.0 | 0.00 | 0.00 | 0.00 | 72 | 2147.4 |
| 20260504005622 | 45 | 200 | 5.2 | 0.0 | 0.00 | 0.00 | 0.00 | 70 | 2147.4 |
| 20260504005119 | 45 | 210 | 5.2 | 0.0 | 0.00 | 0.00 | 0.00 | 73 | 2147.4 |
| 20260504004615 | 45 | 210 | 5.2 | 0.0 | 0.00 | 0.00 | 0.00 | 72 | 2147.4 |
| 20260504004112 | 45 | 210 | 5.2 | 0.0 | 0.00 | 0.00 | 0.00 | 72 | 2147.4 |
| 20260504003608 | 45 | 210 | 5.2 | 0.0 | 0.00 | 0.00 | 0.00 | 74 | 2147.4 |
| 20260504003107 | 45 | 205 | 5.2 | 0.0 | 0.00 | 0.00 | 0.00 | 70 | 2147.4 |
| 20260504002604 | 44 | 205 | 5.2 | 0.0 | 0.00 | 0.00 | 0.00 | 77 | 2147.4 |
| 20260504002101 | 44 | 205 | 5.2 | 0.0 | 0.00 | 0.00 | 0.00 | 76 | 2147.4 |
| 20260504001558 | 44 | 205 | 5.2 | 0.0 | 0.00 | 0.00 | 0.00 | 76 | 2147.4 |
| 20260504001055 | 45 | 205 | 5.2 | 0.0 | 0.00 | 0.00 | 0.00 | 76 | 2147.4 |
| 20260504000551 | 45 | 205 | 5.2 | 0.0 | 0.00 | 0.00 | 0.00 | 75 | 2147.4 |
| 20260504000048 | 45 | 205 | 5.2 | 0.0 | 0.00 | 0.00 | 0.00 | 76 | 2147.4 |
| 20260503235545 | 45 | 205 | 5.2 | 0.0 | 0.00 | 0.00 | 0.00 | 75 | 2147.4 |
| 20260503235041 | 45 | 205 | 5.2 | 0.0 | 0.00 | 0.00 | 0.00 | 74 | 2147.4 |
| 20260503234537 | 45 | 205 | 5.2 | 0.0 | 0.00 | 0.00 | 0.00 | 73 | 2147.4 |
| 20260503234034 | 45 | 205 | 5.2 | 0.0 | 0.00 | 0.00 | 0.00 | 73 | 2147.4 |
| 20260503233530 | 45 | 206 | 5.2 | 0.0 | 0.00 | 0.00 | 0.00 | 75 | 2147.4 |
| 20260503233029 | 45 | 206 | 5.2 | 0.0 | 0.00 | 0.00 | 0.00 | 73 | 2147.4 |
| 20260503232526 | 46 | 206 | 5.2 | 0.0 | 0.00 | 0.00 | 0.00 | 71 | 2147.4 |
| 20260503232024 | 46 | 206 | 5.2 | 0.0 | 0.00 | 0.00 | 0.00 | 70 | 2147.4 |
| 20260503231521 | 46 | 206 | 5.2 | 0.0 | 0.00 | 0.00 | 0.00 | 70 | 2147.4 |
| 20260503231017 | 45 | 206 | 5.2 | 0.0 | 0.00 | 0.00 | 0.00 | 70 | 2147.4 |
| 20260503230514 | 45 | 206 | 5.2 | 0.0 | 0.00 | 0.00 | 0.00 | 70 | 2147.4 |
| 20260503230010 | 45 | 206 | 5.2 | 0.0 | 0.00 | 0.00 | 0.00 | 69 | 2147.4 |
| 20260503225507 | 45 | 206 | 5.2 | 0.0 | 0.00 | 0.00 | 0.00 | 69 | 2147.4 |
| 20260503225006 | 46 | 206 | 5.2 | 0.0 | 0.00 | 0.00 | 0.00 | 70 | 2147.4 |
| 20260503224502 | 46 | 206 | 5.2 | 0.0 | 0.00 | 0.00 | 0.00 | 70 | 2147.4 |
| 20260503224001 | 46 | 206 | 5.2 | 0.0 | 0.00 | 0.00 | 0.00 | 68 | 2147.4 |
| 20260503223457 | 46 | 205 | 5.2 | 0.0 | 0.00 | 0.00 | 0.00 | 70 | 2147.4 |
| 20260503222953 | 46 | 205 | 5.2 | 0.0 | 0.00 | 0.00 | 0.00 | 68 | 2147.4 |
| 20260503222450 | 46 | 205 | 5.2 | 0.0 | 0.00 | 0.00 | 0.00 | 71 | 2147.4 |
| 20260503221947 | 46 | 205 | 5.2 | 0.0 | 0.00 | 0.00 | 0.00 | 69 | 2147.4 |
| 20260503221443 | 46 | 205 | 5.2 | 0.0 | 0.00 | 0.00 | 0.00 | 67 | 2147.4 |
| 20260503220940 | 47 | 205 | 5.2 | 0.0 | 0.00 | 0.00 | 0.00 | 67 | 2147.4 |
| 20260503220436 | 46 | 205 | 5.2 | 0.0 | 0.00 | 0.00 | 0.00 | 69 | 2147.4 |
| 20260503215933 | 46 | 205 | 5.2 | 0.0 | 0.00 | 0.00 | 0.00 | 68 | 2147.4 |
| 20260503215429 | 46 | 205 | 5.2 | 0.0 | 0.00 | 0.00 | 0.00 | 70 | 2147.4 |
| 20260503214927 | 46 | 205 | 5.2 | 0.0 | 0.00 | 0.00 | 0.00 | 71 | 2147.4 |
| 20260503214423 | 46 | 205 | 5.2 | 0.0 | 0.00 | 0.00 | 0.00 | 73 | 2147.4 |
| 20260503213922 | 46 | 205 | 5.2 | 0.0 | 0.00 | 0.00 | 0.00 | 67 | 2147.4 |
| 20260503213418 | 46 | 206 | 5.2 | 0.0 | 0.00 | 0.00 | 0.00 | 69 | 2147.4 |
| 20260503212915 | 46 | 206 | 5.2 | 0.0 | 0.00 | 0.00 | 0.00 | 72 | 2147.4 |
| 20260503212412 | 47 | 206 | 5.2 | 0.0 | 0.00 | 0.00 | 0.00 | 73 | 2147.4 |
| 20260503211909 | 47 | 206 | 5.2 | 0.0 | 0.00 | 0.00 | 0.00 | 69 | 2147.4 |
| 20260503211405 | 47 | 206 | 5.2 | 0.0 | 0.00 | 0.00 | 0.00 | 67 | 2147.4 |
| 20260503210902 | 47 | 206 | 5.2 | 0.0 | 0.00 | 0.00 | 0.00 | 69 | 2147.4 |
| 20260503210358 | 47 | 206 | 5.2 | 0.0 | 0.00 | 0.00 | 0.00 | 69 | 2147.4 |
| 20260503205855 | 47 | 206 | 5.2 | 0.0 | 0.00 | 0.00 | 0.00 | 70 | 2147.4 |
| 20260503205352 | 47 | 206 | 5.2 | 0.0 | 0.00 | 0.00 | 0.00 | 66 | 2147.4 |
| 20260503204848 | 47 | 206 | 5.2 | 0.0 | 0.00 | 0.00 | 0.00 | 71 | 2147.4 |
| 20260503204345 | 48 | 206 | 5.2 | 0.0 | 0.00 | 0.00 | 0.00 | 72 | 2147.4 |
| 20260503203842 | 48 | 206 | 5.2 | 0.0 | 0.00 | 0.00 | 0.00 | 68 | 2147.4 |
| 20260503203338 | 48 | 205 | 5.2 | 0.0 | 0.00 | 0.00 | 0.00 | 66 | 2147.4 |
| 20260503202835 | 49 | 205 | 5.2 | 0.0 | 0.00 | 0.00 | 0.00 | 64 | 2147.4 |
| 20260503202332 | 49 | 205 | 5.2 | 0.0 | 0.00 | 0.00 | 0.00 | 65 | 2147.4 |
| 20260503201828 | 49 | 205 | 5.2 | 0.0 | 0.00 | 0.00 | 0.00 | 67 | 2147.4 |
| 20260503201325 | 49 | 205 | 5.2 | 0.0 | 0.00 | 0.00 | 0.00 | 67 | 2147.4 |
| 20260503200824 | 49 | 205 | 5.2 | 0.0 | 0.00 | 0.00 | 0.00 | 67 | 2147.4 |
| 20260503200321 | 49 | 205 | 5.2 | 0.0 | 0.00 | 0.00 | 0.00 | 66 | 2147.4 |
| 20260503195817 | 49 | 205 | 5.2 | 0.0 | 0.00 | 0.00 | 0.00 | 67 | 2147.4 |
| 20260503195313 | 50 | 205 | 5.2 | 0.0 | 0.00 | 0.00 | 0.00 | 65 | 2147.4 |
| 20260503194812 | 50 | 205 | 5.2 | 0.0 | 0.00 | 0.00 | 0.00 | 67 | 2147.4 |
| 20260503194309 | 50 | 205 | 5.2 | 0.0 | 0.00 | 0.00 | 0.00 | 64 | 2147.4 |
| 20260503193806 | 50 | 205 | 5.2 | 0.0 | 0.00 | 0.00 | 0.00 | 65 | 2147.4 |
| 20260503193302 | 50 | 199 | 5.2 | 0.0 | 0.00 | 0.00 | 0.00 | 64 | 2147.4 |
| 20260503192759 | 51 | 199 | 5.2 | 0.0 | 0.00 | 0.00 | 0.00 | 63 | 2147.4 |
| 20260503192255 | 51 | 199 | 5.2 | 0.0 | 0.00 | 0.00 | 0.00 | 62 | 2147.4 |
| 20260503191751 | 52 | 199 | 5.2 | 0.0 | 0.00 | 0.00 | 0.00 | 60 | 2147.4 |
| 20260503191249 | 52 | 199 | 5.2 | 0.0 | 0.00 | 0.00 | 0.00 | 62 | 2147.4 |
| 20260503190745 | 52 | 199 | 5.2 | 0.0 | 0.00 | 0.00 | 0.00 | 60 | 2147.4 |
| 20260503190241 | 52 | 199 | 5.2 | 0.0 | 0.00 | 0.00 | 0.00 | 60 | 2147.4 |
| 20260503185738 | 53 | 199 | 5.2 | 0.0 | 0.00 | 0.00 | 0.00 | 60 | 2147.4 |
| 20260503185237 | 53 | 199 | 5.2 | 0.0 | 0.00 | 0.00 | 0.00 | 59 | 2147.4 |
| 20260503184734 | 53 | 207 | 6.1 | 0.0 | 0.00 | 0.00 | 0.00 | 58 | 2147.4 |
| 20260503184231 | 54 | 207 | 6.1 | 0.0 | 0.00 | 0.00 | 0.00 | 59 | 2147.4 |
| 20260503183727 | 54 | 207 | 6.1 | 0.0 | 0.00 | 0.00 | 0.00 | 58 | 2147.4 |
| 20260503183223 | 55 | 207 | 6.1 | 0.0 | 0.00 | 0.00 | 0.00 | 57 | 2147.4 |
| 20260503182719 | 56 | 207 | 6.1 | 0.0 | 0.00 | 0.00 | 0.00 | 55 | 2147.4 |
| 20260503182216 | 56 | 207 | 6.1 | 0.0 | 0.00 | 0.00 | 0.00 | 52 | 2147.4 |
| 20260503181713 | 58 | 207 | 6.1 | 0.0 | 0.00 | 0.00 | 0.00 | 51 | 2147.4 |
| 20260503181209 | 59 | 207 | 6.1 | 0.0 | 0.00 | 0.00 | 0.00 | 48 | 2147.4 |
| 20260503180706 | 60 | 207 | 6.1 | 0.0 | 0.00 | 0.00 | 0.00 | 45 | 2147.4 |
| 20260503180202 | 61 | 207 | 6.1 | 0.0 | 0.00 | 0.00 | 0.00 | 41 | 2147.4 |
| 20260503175659 | 61 | 207 | 6.1 | 0.0 | 0.00 | 0.00 | 0.00 | 38 | 2147.4 |
| 20260503175155 | 62 | 207 | 6.1 | 0.0 | 0.00 | 0.00 | 0.00 | 38 | 2147.4 |
| 20260503174652 | 62 | 207 | 6.1 | 0.0 | 0.00 | 0.00 | 0.00 | 39 | 2147.4 |
| 20260503174148 | 63 | 207 | 6.1 | 0.0 | 0.00 | 0.00 | 0.00 | 37 | 2147.4 |
| 20260503173645 | 65 | 207 | 6.1 | 0.0 | 0.00 | 0.00 | 0.00 | 37 | 2147.4 |
| 20260503173141 | 65 | 207 | 6.1 | 0.0 | 0.00 | 0.00 | 0.00 | 35 | 2147.4 |
| 20260503172637 | 66 | 207 | 6.1 | 0.0 | 0.00 | 0.00 | 0.00 | 33 | 2147.4 |
| 20260503172134 | 67 | 207 | 6.1 | 0.0 | 0.00 | 0.00 | 0.00 | 33 | 2147.4 |
| 20260503171631 | 68 | 207 | 6.1 | 0.0 | 0.00 | 0.00 | 0.00 | 33 | 2147.4 |
| 20260503171127 | 70 | 207 | 6.1 | 0.0 | 0.00 | 0.00 | 0.00 | 29 | 2147.4 |
| 20260503170624 | 70 | 207 | 6.1 | 0.0 | 0.00 | 0.00 | 0.00 | 29 | 2147.4 |
| 20260503170120 | 71 | 207 | 6.1 | 0.0 | 0.00 | 0.00 | 0.00 | 29 | 2147.4 |